Location: Marcé
(47.5801°N, 0.3280°W)
Time: 12:04:49
(UTC+01:00)

deb Explorer IX - Pass Details

Date: 07 December 2021
Orbit: 544 x 1082 km, 38.8° (Epoch: 17 January)

Event Time Altitude Azimuth Distance (km) Brightness Sun altitude
Rises 13:24:10 0° 260° (W) 2,921 ? 19.4°
Reaches altitude 10° 13:27:04 10° 243° (WSW) 1,934 ? 19.3°
Maximum altitude 13:30:18 20° 196° (SSW) 1,333 ? 19.3°
Drops below altitude 10° 13:33:22 10° 148° (SSE) 1,820 ? 19.2°
Sets 13:35:59 0° 131° (SE) 2,693 ? 19.1°
